Regional Weather Roundup
Issued by NWS Charleston, SC

Current Version | Previous Version | Graphics & Text | Print | Product List | Glossary On
Versions: 1 2 3 4 5 6 7 8 9 10 11 12 13 14 15 16 17 18 19 20 21 22 23 24 25 26 27 28 29 30 31 32 33 34 35 36 37 38 39 40 41 42 43 44 45 46 47 48 49 50
000 ASUS42 KCHS 300227 RWRCHS REGIONAL WEATHER ROUNDUP NATIONAL WEATHER SERVICE CHARLESTON SC 1000 PM EDT MON JUN 29 2015 NOTE: "FAIR" INDICATES FEW OR NO CLOUDS BELOW 12,000 FEET WITH NO SIGNIFICANT WEATHER AND/OR OBSTRUCTIONS TO VISIBILITY. NOT ALL STATIONS ARE QUALITY CONTROLLED BY THE NATIONAL WEATHER SERVICE. USE DATA WITH CAUTION...ESPECIALLY DEWPOINT OBSERVATIONS. SCZ027-030-031-034>040-042>050-300300- ...SOUTHEAST SOUTH CAROLINA... CITY SKY/WX TMP DP RH WIND PRES REMARKS N CHARLESTON CLEAR 78 71 79 S10 29.99R WATERFRONT PAR N/A 81 74 79 SW7 29.96R MOUNT PLEASANT LGT RAIN 79 72 78 S8 29.99R JOHNS ISLAND FAIR 79 73 83 SW7 30.00R PINOPOLIS NOT AVBL MONCKS CORNER FAIR 79 70 73 SW5 29.99R SUMMERVILLE NOT AVBL BEAUFORT MCAS CLEAR 79 69 71 S3 30.00R BEAUFORT ARPT FAIR 81 72 74 S3 30.00R HILTON HEAD IS CLEAR 81 73 78 S5 30.01R WALTERBORO CLEAR 73 66 78 SW5 30.00R ALLENDALE FAIR 75 64 69 CALM 29.99R ...SOUTHERN MIDLANDS AND PEE DEE... CITY SKY/WX TMP DP RH WIND PRES REMARKS GEORGETOWN NOT AVBL KINGSTREE NOT AVBL ORANGEBURG PTCLDY 74 62 66 CALM 29.98R BARNWELL FAIR 75 64 69 CALM 29.99R AIKEN FAIR N/A N/A N/A S5 30.03R MANNING FAIR 72 55 56 CALM 29.98R COLUMBIA PTCLDY 78 65 63 W3 29.97R SUMTER PTCLDY 77 61 57 S5 29.96R FLORENCE CLEAR 77 61 57 S6 29.96R MYRTLE BEACH CLEAR 81 70 69 SW10 29.99R N MYRTLE BEACH PTCLDY 81 71 71 SW13 29.97R $$ GAZ063-065-086>088-099>101-113>116-118-119-134>141-150-300300- ...SOUTHEAST GEORGIA... CITY SKY/WX TMP DP RH WIND PRES REMARKS SAVANNAH ARPT PTCLDY 79 64 60 S6 30.00R HUNTER AAF CLEAR 78 68 71 S3 29.98R FORT STEWART CLEAR 77 68 72 S5 29.98R STATESBORO CLEAR 78 69 73 S5 30.00R SYLVANIA CLEAR 77 71 81 CALM 30.01R CLAXTON FAIR 72 70 94 CALM 30.00S ...CSRA...CENTRAL AND FAR SOUTHEAST GEORGIA... CITY SKY/WX TMP DP RH WIND PRES REMARKS THOMSON CLEAR 75 67 77 CALM 30.03R AUGUSTA-BUSH CLEAR 73 64 73 CALM 29.97R AUGUSTA-DANIEL CLEAR 82 59 45 SW3 29.99R SWAINSBORO FAIR 79 68 69 CALM 30.01R VIDALIA PTCLDY 77 68 73 SW3 30.01R EASTMAN FAIR 77 67 70 SW3 30.03R HAZLEHURST FAIR 77 68 73 S3 30.00S ALMA CLEAR 74 69 85 S3 30.01R WAYCROSS CLEAR 77 73 87 CALM 30.02R JESUP FAIR 75 70 83 CALM 30.02R BAXLEY FAIR 77 68 73 CALM 30.01R BRUNSWICK CLEAR 72 70 94 CALM 30.03R SAINT SIMONS CLEAR 79 74 84 S5 30.01R $$ SCZ027-028-034-036>038-045-046-048>050-GAZ119-141-300300- ...LAKE AND SUPPLEMENTAL COASTAL OBSERVATIONS... STATION/POSITION TIME TEMP WIND PRES WAVE SWELL AIR SEA DIR/SP/G HT/PER HT/PER/DIR (UTC) (F) (DEG/KT/KT) (MB) (FT/S) (FT/S/D) UPR LAKE MARION NOT AVBL WINYAH BAY 0145 80 210/ 9 1014.0R LAKE MURRAY 0200 83 240/ 4/ 5 1014.2R ACE BASIN NERRS 0100 80 CALM 1015.0S FORT PULASKI 0200 80 84 200/ 4/ 8 1016.4R SAPELO ISLAND 0200 79 170/ 7 1016.0S $$ ANZ835-935-AMZ111-154-330-350-352-354-370-450-454-472-300300- ...C-MAN AND BUOY OBSERVATIONS... STATION/POSITION TIME TEMP WIND PRES WAVE SWELL AIR SEA DIR/SP/G HT/PER HT/PER/DIR (UTC) (F) (DEG/KT/KT) (MB) (FT/S) (FT/S/D) BUOY 41004 0150 82 83 210/ 16/ 17 1015.2R 4/ 7 3/ 7 BUOY 41008 0150 79 80 200/ 10/ 12 1016.4R 2/ 9 2/130/ 9 FOLLY BEACH CMAN 0200 81 210/ 17/ 19 1015.7R CAPERS NEARSHORE 0108 82 220/ 17/ 21 1015.5R FRIPP NEARSHORE 0100 81 200/ 16/ 17 1015.1R STATION/POSITION TIME TEMP WIND PRES WAVE SWELL AIR SEA DIR/SP/G HT/PER HT/PER/DIR (UTC) (F) (DEG/KT/KT) (MB) (FT/S) (FT/S/D) 5E ST. MARYS GA 0121 79 N/A 2/ 8 FRYING PAN BUOY 0150 82 80 220/ 16/ 17 1015.5R 4/ 7 3/150/ 7 BUOY 41025 0150 79 80 280/ 6/ 10 1014.8R 4/ 8 3/160/ 8 CAPE LOOKOUT NC 0200 79 230/ 8/ 11 1014.7R BUOY 41002 0150 78 80 230/ 8/ 10 1017.8R 5/ 6 5/220/ 6 BUOY 41010 0120 81 84 250/ 14/ 16 1018.1R ST AUGUSTINE FL 0200 77 74 220/ 7/ 8 1018.0R $$

USA.gov is the U.S. government's official web portal to all federal, state and local government web resources and services.